User: anonymous   Login
Location: Rounton
(54.4000°N, 1.3500°W)
Time: 18:34:38
(UTC+00:00)
Language:

Altair - Orbit

View from above orbital plane
View from above orbital plane
View from above satellite
View from above satellite

Ground track
Ground track

The orbit data is extracted from the following two-line orbital elements,

1 00050U 60009B   21333.30744830 -.00000040  00000-0  43802-3 0  9996
2 00050  47.2313 276.7787 0113063 104.6132 256.7225 12.20117657734917
Epoch (UTC): 29 November 2021 07:22:43
Eccentricity: 0.0113063
inclination: 47.2313°
perigee height: 1502 km
apogee height: 1682 km
right ascension of ascending node: 276.7787°
argument of perigee: 104.6132°
revolutions per day: 12.20117657
mean anomaly at epoch: 256.7225°
orbit number at epoch: 73491

The dashed part of the orbit path shows where the satellite is in the earth's shadow,  

DLR